TimeEST,TemperatureF,Dew PointF,Humidity,Sea Level PressureIn,VisibilityMPH,Wind Direction,Wind SpeedMPH,Gust SpeedMPH,PrecipitationIn,Events,Conditions,WindDirDegrees,DateUTC
12:55 AM,57.7,55.6,92,30.27,10.0,East,8.1,-,N/A,,Partly Cloudy,80,2012-11-11 05:55:00
1:55 AM,55.9,54.5,95,30.25,10.0,ENE,8.1,-,N/A,,Clear,70,2012-11-11 06:55:00
2:55 AM,55.8,54.3,95,30.25,10.0,ENE,6.9,-,N/A,,Clear,70,2012-11-11 07:55:00
3:55 AM,55.0,53.6,95,30.24,10.0,ENE,8.1,-,N/A,,Clear,70,2012-11-11 08:55:00
4:55 AM,55.4,54.9,98,30.25,10.0,ENE,8.1,-,N/A,,Clear,60,2012-11-11 09:55:00
5:55 AM,55.2,54.7,98,30.26,10.0,ENE,8.1,-,N/A,,Clear,60,2012-11-11 10:55:00
6:55 AM,55.4,55.0,99,30.27,10.0,East,10.4,-,N/A,,Clear,80,2012-11-11 11:55:00
7:55 AM,60.4,60.3,99,30.28,10.0,ENE,6.9,-,N/A,,Clear,70,2012-11-11 12:55:00
8:55 AM,66.4,61.3,84,30.30,10.0,East,10.4,-,N/A,,Clear,80,2012-11-11 13:55:00
9:55 AM,72.3,60.6,67,30.31,10.0,East,11.5,-,N/A,,Clear,100,2012-11-11 14:55:00
10:55 AM,75.9,61.9,62,30.30,10.0,East,10.4,-,N/A,,Scattered Clouds,90,2012-11-11 15:55:00
11:55 AM,79.0,62.1,56,30.27,10.0,ESE,10.4,-,N/A,,Partly Cloudy,120,2012-11-11 16:55:00
12:55 PM,80.8,59.7,49,30.24,10.0,ESE,11.5,20.7,N/A,,Partly Cloudy,110,2012-11-11 17:55:00
1:55 PM,82.4,61.9,50,30.22,10.0,East,16.1,-,N/A,,Partly Cloudy,100,2012-11-11 18:55:00
2:55 PM,77.5,62.1,59,30.22,10.0,SE,12.7,21.9,N/A,,Mostly Cloudy,130,2012-11-11 19:55:00
3:55 PM,76.1,62.8,63,30.23,10.0,ESE,10.4,-,N/A,,Overcast,120,2012-11-11 20:55:00
4:55 PM,77.5,62.1,59,30.22,10.0,ESE,13.8,20.7,N/A,,Mostly Cloudy,110,2012-11-11 21:55:00
5:55 PM,72.7,62.8,71,30.22,10.0,East,8.1,-,N/A,,Clear,100,2012-11-11 22:55:00
6:55 PM,71.1,63.3,76,30.25,10.0,East,9.2,-,N/A,,Clear,100,2012-11-11 23:55:00
7:55 PM,66.4,62.2,86,30.26,10.0,East,8.1,-,N/A,,Partly Cloudy,90,2012-11-12 00:55:00
8:55 PM,67.5,62.2,83,30.26,10.0,East,8.1,-,N/A,,Partly Cloudy,90,2012-11-12 01:55:00
9:55 PM,64.8,61.0,88,30.26,10.0,East,9.2,-,N/A,,Clear,80,2012-11-12 02:55:00
10:55 PM,66.4,63.0,89,30.25,10.0,East,10.4,-,N/A,,Clear,100,2012-11-12 03:55:00
11:55 PM,65.8,64.0,94,30.24,10.0,East,8.1,-,N/A,,Clear,100,2012-11-12 04:55:00